Flag for Cayman Islands Weather past 2 weeks in George Town, Cayman Islands

Now
88 °F

Scattered clouds.


Feels Like: 102 °F
Forecast: 83 / 86 °F
Wind: 17 mph from East

Location: Owen Roberts Airportgrand Cayman

Current Time: Jun 30, 2015 at 12:26:32 PM

Latest Report: Jun 30, 2015 at 12:00 PM


Visibility: N/A

Pressure: 30.07 "Hg

Humidity: 75%

Dew point: 79 °F

Location of George TownLocation

Historic Weather in George Town — Graph

°F

George Town temperature yesterday

Maximum temperature yesterday: 90 °F (at 1:00 PM)
Minimum temperature yesterday: 82 °F (at 6:00 AM)
Average temperature yesterday: 87 °F

Past Weeks' High & Low Weather Summary

 TemperatureHumidityPressure
High90 °F (Jun 16, 12:00 PM)94% (Jun 16, 9:00 PM)30.09 "Hg (Jun 16, 9:00 PM)
Low81 °F (Jun 17, 6:00 AM)63% (Jun 27, 1:00 PM)29.95 "Hg (Jun 15, 3:00 PM)
Average86 °F81%30.02 "Hg
* Reported Jun 15 11:00 AM — Jun 30 11:00 AM, George Town, Weather by CustomWeather, © 2015

Note: Actual official high and low records may vary slightly from our data, if they occured in-between our weather recording intervals... More about our weather records

Advertising

George Town weather history for previous 24 hours

 ConditionsComfort  
Time TempWeatherWind HumidityBarometerVisibility
11:00 AM
Tue, Jun 30
88 °FScattered clouds.18 mph75%30.07 "HgN/A
10:00 AM88 °FPassing clouds.16 mph70%30.07 "HgN/A
9:00 AM88 °FPassing clouds.13 mph70%30.07 "HgN/A
8:00 AM86 °FPassing clouds.13 mph79%30.07 "HgN/A
7:00 AM82 °FPassing clouds.8 mph89%30.07 "HgN/A
6:00 AM82 °FPassing clouds.9 mph89%30.04 "HgN/A
10:00 PM
Mon, Jun 29
84 °FPassing clouds.10 mph89%30.09 "HgN/A
9:00 PM84 °FPassing clouds.9 mph84%30.04 "HgN/A
8:00 PM84 °FPassing clouds.9 mph79%30.04 "HgN/A
7:00 PM86 °FPassing clouds.7 mph79%30.01 "HgN/A
6:00 PM86 °FPassing clouds.9 mph79%30.01 "HgN/A
5:00 PM88 °FPassing clouds.9 mph75%30.01 "HgN/A
4:00 PM88 °FPassing clouds.13 mph79%30.01 "HgN/A
3:00 PM90 °FScattered clouds.12 mph79%30.04 "HgN/A
2:00 PM90 °FScattered clouds.15 mph79%30.04 "HgN/A
1:00 PM90 °FPassing clouds.13 mph71%30.04 "HgN/A
12:00 PM88 °FPassing clouds.12 mph75%30.07 "HgN/A
Weather by CustomWeather, © 2015

See weather overviewHow to use our weather pages